Radiation Dose at Monitoring Post of Fukushima Daini Nuclear Power Station
Date,Time,MP-1(microSv/h),MP-2(microSv/h),MP-3(microSv/h),MP-4(microSv/h),MP-5(microSv/h),MP-6(microSv/h),MP-7(microSv/h),Wind Direction,Wind Velocity(m/s),Rain
2015/05/12,00:00,0.565,0.340,0.605,0.564,0.485,0.261,0.235,south-southwest,6.4,No
2015/05/12,00:10,0.560,0.340,0.602,0.559,0.482,0.261,0.236,south-southwest,6.2,No
2015/05/12,00:20,0.565,0.340,0.608,0.564,0.485,0.262,0.235,south-southwest,7.0,No
2015/05/12,00:30,0.561,0.342,0.603,0.561,0.482,0.259,0.235,southwest,7.4,No
2015/05/12,00:40,0.563,0.338,0.608,0.561,0.484,0.261,0.236,southwest,6.3,No
2015/05/12,00:50,0.562,0.339,0.604,0.563,0.483,0.261,0.236,south-southwest,7.4,No
2015/05/12,01:00,0.561,0.341,0.606,0.560,0.483,0.261,0.236,south-southwest,7.7,No
2015/05/12,01:10,0.564,0.339,0.604,0.563,0.485,0.259,0.235,southwest,8.3,No
2015/05/12,01:20,0.559,0.342,0.604,0.559,0.484,0.260,0.235,southwest,8.3,No
2015/05/12,01:30,0.565,0.339,0.606,0.564,0.486,0.261,0.236,southwest,8.3,No
2015/05/12,01:40,0.560,0.341,0.602,0.559,0.483,0.259,0.235,southwest,8.8,No
2015/05/12,01:50,0.564,0.342,0.608,0.562,0.483,0.261,0.235,south-southwest,7.5,No
2015/05/12,02:00,0.559,0.340,0.602,0.563,0.483,0.261,0.237,south-southwest,7.7,No
2015/05/12,02:10,0.563,0.342,0.608,0.561,0.481,0.261,0.236,south-southwest,8.6,No
2015/05/12,02:20,0.562,0.339,0.603,0.562,0.483,0.261,0.236,south-southwest,8.6,No
2015/05/12,02:30,0.563,0.340,0.608,0.559,0.482,0.260,0.235,south-southwest,7.8,No
2015/05/12,02:40,0.561,0.341,0.602,0.564,0.484,0.262,0.235,south-southwest,9.2,No
2015/05/12,02:50,0.560,0.339,0.605,0.561,0.481,0.261,0.236,south-southwest,8.9,No
2015/05/12,03:00,0.563,0.342,0.604,0.564,0.484,0.261,0.235,south-southwest,8.6,No
2015/05/12,03:10,0.561,0.339,0.604,0.561,0.483,0.259,0.236,south-southwest,8.7,No
2015/05/12,03:20,0.564,0.340,0.602,0.561,0.482,0.260,0.236,south-southwest,8.1,No
2015/05/12,03:30,0.560,0.339,0.605,0.562,0.483,0.261,0.235,south-southwest,8.1,No
2015/05/12,03:40,0.563,0.340,0.605,0.562,0.481,0.260,0.236,south-southwest,9.1,No
2015/05/12,03:50,0.559,0.340,0.602,0.562,0.485,0.261,0.236,south-southwest,8.2,No
2015/05/12,04:00,0.565,0.340,0.607,0.559,0.480,0.260,0.235,south-southwest,7.8,No
2015/05/12,04:10,0.560,0.341,0.602,0.564,0.486,0.260,0.236,south-southwest,6.7,No
2015/05/12,04:20,0.564,0.339,0.607,0.561,0.481,0.260,0.235,south-southwest,7.8,No
2015/05/12,04:30,0.561,0.339,0.601,0.564,0.485,0.261,0.236,south-southwest,7.5,No
2015/05/12,04:40,0.563,0.340,0.608,0.560,0.481,0.260,0.234,south-southwest,7.5,No
2015/05/12,04:50,0.561,0.341,0.603,0.563,0.484,0.262,0.236,south-southwest,7.9,No
2015/05/12,05:00,0.562,0.340,0.608,0.561,0.483,0.261,0.236,south-southwest,6.1,No
2015/05/12,05:10,0.563,0.339,0.605,0.563,0.484,0.260,0.236,south-southwest,7.2,No
2015/05/12,05:20,0.561,0.342,0.605,0.562,0.485,0.261,0.236,south-southwest,7.2,No
2015/05/12,05:30,0.564,0.338,0.605,0.562,0.482,0.260,0.236,south-southwest,6.7,No
2015/05/12,05:40,0.559,0.341,0.604,0.563,0.486,0.261,0.234,south-southwest,6.9,No
2015/05/12,05:50,0.565,0.342,0.607,0.560,0.481,0.260,0.236,south-southwest,7.3,No
2015/05/12,06:00,0.561,0.340,0.603,0.564,0.486,0.261,0.236,south-southwest,7.8,No
2015/05/12,06:10,0.566,0.340,0.609,0.559,0.482,0.261,0.236,south-southwest,5.9,No
2015/05/12,06:20,0.560,0.340,0.602,0.563,0.485,0.261,0.235,south-southwest,4.2,No
2015/05/12,06:30,0.564,0.342,0.608,0.559,0.481,0.261,0.236,south-southwest,4.9,No
2015/05/12,06:40,0.560,0.339,0.604,0.564,0.484,0.260,0.235,south-southwest,5.7,No
2015/05/12,06:50,0.564,0.341,0.606,0.559,0.483,0.261,0.236,south-southwest,7.0,No
2015/05/12,07:00,0.560,0.340,0.602,0.562,0.484,0.260,0.234,south-southwest,7.2,No
2015/05/12,07:10,0.565,0.340,0.608,0.559,0.483,0.260,0.235,south,7.9,No
2015/05/12,07:20,0.558,0.340,0.600,0.564,0.484,0.261,0.236,south-southwest,7.8,No
2015/05/12,07:30,0.566,0.338,0.603,0.557,0.481,0.259,0.234,south,8.5,No
2015/05/12,07:40,0.556,0.338,0.606,0.560,0.484,0.259,0.234,south,8.7,No
2015/05/12,07:50,0.560,0.340,0.600,0.561,0.478,0.261,0.235,south,8.0,No
2015/05/12,08:00,0.561,0.339,0.607,0.558,0.485,0.261,0.235,south-southwest,8.8,No
2015/05/12,08:10,0.558,0.342,0.605,0.562,0.483,0.260,0.236,south,8.0,No
2015/05/12,08:20,0.563,0.339,0.604,0.557,0.480,0.261,0.235,south-southwest,8.9,No
2015/05/12,08:30,0.557,0.339,0.607,0.561,0.486,0.262,0.235,south-southwest,7.4,No
2015/05/12,08:40,0.560,0.341,0.603,0.561,0.481,0.260,0.234,south-southwest,7.5,Yes
2015/05/12,08:50,0.563,0.338,0.608,0.560,0.485,0.258,0.235,south-southwest,9.0,No
2015/05/12,09:00,0.561,0.342,0.602,0.563,0.482,0.258,0.236,south-southwest,7.8,No
2015/05/12,09:10,0.564,0.340,0.608,0.559,0.482,0.261,0.236,south-southwest,6.4,No
2015/05/12,09:20,0.559,0.339,0.605,0.565,0.486,0.258,0.236,south,8.3,No
2015/05/12,09:30,0.565,0.342,0.603,0.560,0.479,0.260,0.234,south,7.8,Yes
2015/05/12,09:40,0.562,0.338,0.608,0.557,0.479,0.259,0.236,south-southwest,8.1,No
2015/05/12,09:50,0.557,0.338,0.602,0.562,0.485,0.259,0.236,south,8.5,No
2015/05/12,10:00,0.564,0.341,0.606,0.557,0.478,0.260,0.235,south,7.5,No
2015/05/12,10:10,0.561,0.336,0.607,0.562,0.483,0.259,0.235,south,8.2,No
2015/05/12,10:20,0.560,0.339,0.599,0.561,0.485,0.259,0.234,south,8.2,No
2015/05/12,10:30,0.563,0.339,0.602,0.557,0.480,0.260,0.235,south,9.1,No
2015/05/12,10:40,0.562,0.339,0.604,0.553,0.477,0.259,0.235,south,10.2,No
2015/05/12,10:50,0.555,0.336,0.602,0.559,0.478,0.259,0.233,south,11.5,No
2015/05/12,11:00,0.557,0.336,0.598,0.564,0.484,0.261,0.235,south,10.1,No
2015/05/12,11:10,0.565,0.341,0.597,0.558,0.484,0.261,0.236,south,10.4,No
2015/05/12,11:20,0.565,0.340,0.600,0.554,0.480,0.260,0.234,south,11.1,No
2015/05/12,11:30,0.559,0.337,0.608,0.560,0.477,0.259,0.236,south,10.3,No
2015/05/12,11:40,0.560,0.338,0.605,0.564,0.484,0.261,0.236,south,11.5,No
2015/05/12,11:50,0.564,0.341,0.601,0.557,0.484,0.260,0.234,south,13.7,No
2015/05/12,12:00,0.561,0.340,0.605,0.560,0.482,0.260,0.236,south,12.7,No
2015/05/12,12:10,0.560,0.338,0.608,0.567,0.484,0.261,0.235,south,13.3,No
2015/05/12,12:20,0.568,0.341,0.604,0.562,0.487,0.259,0.234,south,14.6,No
2015/05/12,12:30,0.562,0.340,0.599,0.556,0.480,0.260,0.236,south,14.8,No
2015/05/12,12:40,0.559,0.338,0.606,0.564,0.482,0.260,0.235,south,12.3,No
2015/05/12,12:50,0.567,0.342,0.607,0.562,0.487,0.260,0.236,south,12.1,No
2015/05/12,13:00,0.562,0.339,0.602,0.559,0.482,0.260,0.235,south,13.5,No
2015/05/12,13:10,0.561,0.340,0.609,0.565,0.483,0.259,0.234,south,13.6,No
2015/05/12,13:20,0.565,0.342,0.607,0.561,0.488,0.260,0.236,south,12.9,No
2015/05/12,13:30,0.560,0.340,0.602,0.559,0.481,0.260,0.235,south,13.8,No
2015/05/12,13:40,0.560,0.338,0.602,0.565,0.477,0.259,0.236,south,14.9,No
2015/05/12,13:50,0.564,0.342,0.608,0.560,0.487,0.259,0.234,south,14.7,No
2015/05/12,14:00,0.559,0.339,0.604,0.557,0.484,0.258,0.235,south,11.9,No
2015/05/12,14:10,0.566,0.339,0.605,0.565,0.480,0.260,0.235,south,12.6,No
2015/05/12,14:20,0.563,0.342,0.609,0.558,0.487,0.259,0.235,south,10.3,No
2015/05/12,14:30,0.559,0.339,0.602,0.563,0.483,0.259,0.236,south,11.5,No
2015/05/12,14:40,0.566,0.343,0.608,0.561,0.480,0.260,0.235,south,10.3,No
2015/05/12,14:50,0.558,0.340,0.609,0.559,0.488,0.259,0.237,south,11.8,No
2015/05/12,15:00,0.564,0.338,0.602,0.564,0.481,0.260,0.235,south,10.5,No
2015/05/12,15:10,0.562,0.340,0.609,0.560,0.484,0.260,0.236,south,11.8,No
2015/05/12,15:20,0.560,0.341,0.605,0.562,0.486,0.260,0.235,south,10.7,No
2015/05/12,15:30,0.564,0.340,0.601,0.563,0.480,0.261,0.236,south,10.9,No
2015/05/12,15:40,0.560,0.341,0.610,0.559,0.488,0.260,0.236,south,9.3,No
2015/05/12,15:50,0.565,0.339,0.606,0.564,0.483,0.261,0.237,south,9.6,No
2015/05/12,16:00,0.561,0.342,0.603,0.557,0.482,0.260,0.235,south,10.2,No
2015/05/12,16:10,0.553,0.339,0.609,0.566,0.487,0.261,0.236,south-southwest,11.7,No
2015/05/12,16:20,0.564,0.342,0.602,0.562,0.481,0.260,0.235,south-southwest,12.9,Yes
2015/05/12,16:30,0.560,0.340,0.612,0.562,0.487,0.260,0.237,south-southwest,10.9,Yes
2015/05/12,16:40,0.563,0.341,0.605,0.564,0.481,0.261,0.236,south-southwest,10.1,Yes
2015/05/12,16:50,0.559,0.341,0.603,0.557,0.484,0.259,0.236,south-southwest,11.2,Yes
2015/05/12,17:00,0.562,0.340,0.606,0.564,0.484,0.260,0.236,south-southwest,10.5,Yes
2015/05/12,17:10,0.563,0.342,0.601,0.559,0.482,0.260,0.235,south-southwest,10.1,Yes
2015/05/12,17:20,0.559,0.340,0.609,0.564,0.487,0.261,0.236,south-southwest,9.8,Yes
2015/05/12,17:30,0.566,0.342,0.602,0.561,0.481,0.260,0.234,south-southwest,9.5,Yes
2015/05/12,17:40,0.560,0.338,0.610,0.562,0.486,0.261,0.235,south-southwest,10.3,Yes
2015/05/12,17:50,0.564,0.342,0.601,0.561,0.480,0.261,0.236,south-southwest,10.4,Yes
2015/05/12,18:00,0.560,0.339,0.607,0.559,0.486,0.261,0.235,south-southwest,10.0,Yes
2015/05/12,18:10,0.565,0.341,0.603,0.562,0.481,0.261,0.237,south-southwest,9.5,Yes
2015/05/12,18:20,0.559,0.338,0.605,0.557,0.486,0.260,0.235,south-southwest,9.0,Yes
2015/05/12,18:30,0.564,0.340,0.605,0.563,0.482,0.261,0.236,south-southwest,8.3,Yes
2015/05/12,18:40,0.558,0.339,0.601,0.557,0.484,0.260,0.235,south-southwest,8.6,Yes
2015/05/12,18:50,0.563,0.341,0.607,0.563,0.482,0.262,0.235,south-southwest,10.2,Yes
2015/05/12,19:00,0.559,0.339,0.599,0.559,0.481,0.259,0.234,south-southwest,10.0,No
2015/05/12,19:10,0.563,0.340,0.608,0.564,0.481,0.261,0.235,south-southwest,9.8,No
2015/05/12,19:20,0.561,0.340,0.598,0.558,0.481,0.260,0.235,south-southwest,9.0,No
2015/05/12,19:30,0.561,0.339,0.603,0.561,0.485,0.260,0.235,south,8.1,No
2015/05/12,19:40,0.562,0.340,0.602,0.560,0.479,0.259,0.235,south,9.6,No
2015/05/12,19:50,0.557,0.341,0.602,0.561,0.485,0.259,0.235,south-southwest,9.5,No
2015/05/12,20:00,0.563,0.340,0.604,0.558,0.478,0.261,0.235,south-southwest,10.1,No
2015/05/12,20:10,0.560,0.338,0.600,0.561,0.485,0.258,0.234,south-southwest,9.2,No
2015/05/12,20:20,0.562,0.340,0.606,0.562,0.479,0.261,0.235,south,8.2,No
2015/05/12,20:30,0.558,0.338,0.599,0.559,0.482,0.258,0.234,south,8.4,No
2015/05/12,20:40,0.563,0.340,0.604,0.562,0.481,0.260,0.235,south,9.2,Yes
2015/05/12,20:50,0.558,0.337,0.601,0.556,0.481,0.259,0.233,south,8.1,Yes
2015/05/12,21:00,0.562,0.340,0.602,0.562,0.482,0.259,0.235,south,8.4,Yes
2015/05/12,21:10,0.558,0.338,0.604,0.559,0.482,0.258,0.234,south,7.3,Yes
2015/05/12,21:20,0.564,0.340,0.603,0.563,0.484,0.259,0.234,south,7.2,Yes
2015/05/12,21:30,0.558,0.339,0.605,0.558,0.480,0.259,0.234,south,10.8,Yes
2015/05/12,21:40,0.561,0.340,0.604,0.563,0.484,0.261,0.234,south-southwest,11.2,Yes
2015/05/12,21:50,0.559,0.338,0.603,0.558,0.478,0.260,0.234,south,9.5,Yes
2015/05/12,22:00,0.564,0.341,0.600,0.562,0.486,0.260,0.235,south,11.4,Yes
2015/05/12,22:10,0.561,0.339,0.606,0.558,0.479,0.261,0.234,south,10.9,Yes
2015/05/12,22:20,0.561,0.341,0.600,0.560,0.486,0.260,0.234,south,11.6,Yes
2015/05/12,22:30,0.561,0.339,0.607,0.559,0.479,0.260,0.234,south,9.3,Yes
2015/05/12,22:40,0.560,0.339,0.601,0.560,0.485,0.260,0.235,south,9.9,Yes
2015/05/12,22:50,0.562,0.339,0.605,0.559,0.479,0.260,0.234,south,13.4,Yes
2015/05/12,23:00,0.559,0.339,0.602,0.559,0.483,0.259,0.235,south,13.5,Yes
2015/05/12,23:10,0.561,0.339,0.604,0.560,0.478,0.262,0.236,south,15.7,Yes
2015/05/12,23:20,0.557,0.338,0.600,0.555,0.481,0.258,0.234,south,14.4,Yes
2015/05/12,23:30,0.556,0.338,0.596,0.551,0.472,0.258,0.232,south,13.2,Yes
2015/05/12,23:40,0.549,0.334,0.588,0.541,0.473,0.254,0.229,south,8.5,Yes
2015/05/12,23:50,0.546,0.332,0.579,0.538,0.468,0.255,0.227,south-southwest,12.6,Yes
